Tracking 32991 objects as of 22-Jan-2026
HD Live streaming from Space Station
objects crossing your sky now

ARIANE 3 DEB

Track ARIANE 3 DEB now!
10-day predictions


NORAD ID: 27740
Int'l Code: 1984-114E
Perigee: 252.9 km
Apogee: 1,298.4 km
Inclination: 6.7 °
Period: 100.2 minutes
Semi major axis: 7146 km
RCS: 18.1115 m2 (large)
Launch date: November 10, 1984
Source: France (FR)
Launch site: FRENCH GUIANA (FRGUI)

Note: This is SATELLITE DEBRIS
Your satellite tracking list
Your tracking list is empty




NASA's NSSDC Master Catalog

Two Line Element Set (TLE):
1 27740U 84114E   26003.09489637  .00422934  10620-5  32605-2 0  9991
2 27740   6.7037 250.9442 0731430  39.9640 325.2121 14.36977985 64982
Source of the keplerian elements: AFSPC